Time,TemperatureF,DewpointF,PressureIn,WindDirection,WindDirectionDegrees,WindSpeedMPH,WindSpeedGustMPH,Humidity,HourlyPrecipIn,Conditions,Clouds,dailyrainin,SolarRadiationWatts/m^2,SoftwareType,DateUTC
2013-05-13 00:00:00,60.0,57.0,-100.00,SE,124,0.0,-999.0,88,-99.99,,,-99.99,0.000000,,2013-05-13 05:00:00,
2013-05-13 00:52:00,60.0,57.0,-100.00,SE,124,0.0,-999.0,88,-99.99,,,-99.99,0.000000,,2013-05-13 05:52:00,
2013-05-13 03:00:00,55.0,53.0,-100.00,East,90,0.0,-999.0,95,-99.99,,,-99.99,0.000000,,2013-05-13 08:00:00,
2013-05-13 03:52:00,55.0,53.0,-100.00,East,90,0.0,-999.0,95,-99.99,,,-99.99,0.000000,,2013-05-13 08:52:00,
2013-05-13 04:00:00,52.0,51.0,-100.00,East,86,0.0,-999.0,96,-99.99,,,-99.99,0.000000,,2013-05-13 09:00:00,
2013-05-13 04:52:00,52.0,51.0,-100.00,East,86,0.0,-999.0,96,-99.99,,,-99.99,0.000000,,2013-05-13 09:52:00,
2013-05-13 05:00:00,51.0,50.0,-100.00,East,96,0.0,-999.0,97,-99.99,,,-99.99,0.010000,,2013-05-13 10:00:00,
2013-05-13 05:52:00,51.0,50.0,-100.00,East,96,0.0,-999.0,97,-99.99,,,-99.99,0.010000,,2013-05-13 10:52:00,
2013-05-13 06:00:00,50.0,50.0,-100.00,North,9,0.0,-999.0,97,-99.99,,,-99.99,0.730000,,2013-05-13 11:00:00,
2013-05-13 06:52:00,50.0,50.0,-100.00,North,9,0.0,-999.0,97,-99.99,,,-99.99,0.730000,,2013-05-13 11:52:00,
2013-05-13 07:00:00,52.0,51.0,-100.00,North,354,0.0,-999.0,97,-99.99,,,-99.99,34.240002,,2013-05-13 12:00:00,
2013-05-13 07:52:00,52.0,51.0,-100.00,North,354,0.0,-999.0,97,-99.99,,,-99.99,34.240002,,2013-05-13 12:52:00,
2013-05-13 09:00:00,65.0,50.0,-100.00,NNE,23,1.0,-999.0,58,-99.99,,,-99.99,379.809998,,2013-05-13 14:00:00,
2013-05-13 09:52:00,65.0,50.0,-100.00,NNE,23,1.0,-999.0,58,-99.99,,,-99.99,379.809998,,2013-05-13 14:52:00,
2013-05-13 10:00:00,69.0,46.0,-100.00,NE,48,1.0,-999.0,44,-99.99,,,-99.99,588.239990,,2013-05-13 15:00:00,
2013-05-13 10:53:00,69.0,46.0,-100.00,NE,48,1.0,-999.0,44,-99.99,,,-99.99,588.239990,,2013-05-13 15:53:00,
2013-05-13 11:00:00,73.0,43.0,-100.00,NE,56,2.0,-999.0,34,-99.99,,,-99.99,739.099976,,2013-05-13 16:00:00,
2013-05-13 11:53:00,73.0,43.0,-100.00,NE,56,2.0,-999.0,34,-99.99,,,-99.99,739.099976,,2013-05-13 16:53:00,
2013-05-13 12:00:00,73.0,41.0,-100.00,NE,34,2.0,-999.0,31,-99.99,,,-99.99,818.900024,,2013-05-13 17:00:00,
2013-05-13 12:54:00,73.0,41.0,-100.00,NE,34,2.0,-999.0,31,-99.99,,,-99.99,818.900024,,2013-05-13 17:54:00,
2013-05-13 13:00:00,77.0,45.0,-100.00,ENE,58,2.0,-999.0,32,-99.99,,,-99.99,917.700012,,2013-05-13 18:00:00,
2013-05-13 13:52:00,77.0,45.0,-100.00,ENE,58,2.0,-999.0,32,-99.99,,,-99.99,917.700012,,2013-05-13 18:52:00,
2013-05-13 14:00:00,77.0,40.0,-100.00,NE,53,2.0,-999.0,27,-99.99,,,-99.99,890.150024,,2013-05-13 19:00:00,
2013-05-13 14:53:00,77.0,40.0,-100.00,NE,53,2.0,-999.0,27,-99.99,,,-99.99,890.150024,,2013-05-13 19:53:00,
2013-05-13 15:00:00,79.0,45.0,-100.00,North,355,1.0,-999.0,31,-99.99,,,-99.99,826.500000,,2013-05-13 20:00:00,
2013-05-13 15:53:00,79.0,45.0,-100.00,North,355,1.0,-999.0,31,-99.99,,,-99.99,826.500000,,2013-05-13 20:53:00,
2013-05-13 16:00:00,79.0,45.0,-100.00,NNE,23,2.0,-999.0,31,-99.99,,,-99.99,709.650024,,2013-05-13 21:00:00,
2013-05-13 16:53:00,79.0,45.0,-100.00,NNE,23,2.0,-999.0,31,-99.99,,,-99.99,709.650024,,2013-05-13 21:53:00,
2013-05-13 17:00:00,75.0,53.0,-100.00,SW,230,5.0,-999.0,46,-99.99,,,-99.99,543.210022,,2013-05-13 22:00:00,
2013-05-13 17:52:00,75.0,53.0,-100.00,SW,230,5.0,-999.0,46,-99.99,,,-99.99,543.210022,,2013-05-13 22:52:00,
2013-05-13 18:00:00,73.0,52.0,-100.00,SW,232,7.0,-999.0,48,-99.99,,,-99.99,350.170013,,2013-05-13 23:00:00,
2013-05-13 18:54:00,73.0,52.0,-100.00,SW,232,7.0,-999.0,48,-99.99,,,-99.99,350.170013,,2013-05-13 23:54:00,
2013-05-13 19:00:00,69.0,54.0,-100.00,WSW,237,5.0,-999.0,58,-99.99,,,-99.99,150.960007,,2013-05-14 00:00:00,
2013-05-13 19:52:00,69.0,54.0,-100.00,WSW,237,5.0,-999.0,58,-99.99,,,-99.99,150.960007,,2013-05-14 00:52:00,
2013-05-13 20:00:00,66.0,55.0,-100.00,SW,229,3.0,-999.0,67,-99.99,,,-99.99,12.660000,,2013-05-14 01:00:00,
2013-05-13 20:53:00,66.0,55.0,-100.00,SW,229,3.0,-999.0,67,-99.99,,,-99.99,12.660000,,2013-05-14 01:53:00,
2013-05-13 21:00:00,60.0,55.0,-100.00,West,263,1.0,-999.0,84,-99.99,,,-99.99,0.000000,,2013-05-14 02:00:00,
2013-05-13 21:52:00,60.0,55.0,-100.00,West,263,1.0,-999.0,84,-99.99,,,-99.99,0.000000,,2013-05-14 02:52:00,
2013-05-13 22:00:00,58.0,55.0,-100.00,NNW,346,0.0,-999.0,92,-99.99,,,-99.99,0.000000,,2013-05-14 03:00:00,
2013-05-13 22:53:00,58.0,55.0,-100.00,NNW,346,0.0,-999.0,92,-99.99,,,-99.99,0.000000,,2013-05-14 03:53:00,
2013-05-13 23:00:00,57.0,55.0,-100.00,NW,326,0.0,-999.0,94,-99.99,,,-99.99,0.000000,,2013-05-14 04:00:00,
2013-05-13 23:53:00,57.0,55.0,-100.00,NW,326,0.0,-999.0,94,-99.99,,,-99.99,0.000000,,2013-05-14 04:53:00,